Location: La Brionne
(46.1728°N, 1.7849°E)
Time: 04:06:58
(UTC+00:00)

Tiangong - Visible Passes

Search period start: 28 February 2024 00:00
Search period end: 09 March 2024 00:00
Orbit: 375 x 385 km, 41.5° (Epoch: 27 February)

Date Brightness Start Highest point End Pass type
(mag) Time Alt. Az. Time Alt. Az. Time Alt. Az.
28 Feb 0.8 19:49:01 10° SW 19:49:13 11° SW 19:49:13 11° SW visible
29 Feb -0.2 18:48:28 10° SSW 18:50:34 17° SSE 18:51:11 16° SE visible
01 Mar -0.7 19:22:56 10° SW 19:25:08 26° S 19:25:08 26° S visible
02 Mar -0.5 18:22:01 10° SW 18:24:30 22° SSE 18:26:51 11° ESE visible
02 Mar 0.4 19:57:56 10° WSW 19:58:58 18° WSW 19:58:58 18° WSW visible
03 Mar -1.1 18:56:42 10° WSW 18:59:32 32° S 19:00:34 25° SE visible
04 Mar -0.9 19:31:43 10° WSW 19:34:11 31° SSW 19:34:11 31° SSW visible
05 Mar -1.0 18:30:16 10° WSW 18:33:08 34° S 18:35:38 12° ESE visible
05 Mar 0.6 20:06:54 10° WSW 20:07:44 15° WSW 20:07:44 15° WSW visible
06 Mar -0.7 19:05:14 10° WSW 19:07:59 29° S 19:09:08 22° SSE visible
07 Mar 0.1 19:40:30 10° WSW 19:42:34 17° SSW 19:42:34 17° SSW visible
08 Mar -0.3 18:38:33 10° WSW 18:41:08 24° SSW 18:43:42 10° SE visible
